Fort Knox, KY

2:07 PM EST on February 21, 2018 (GMT -0500)
Godman Army Air Field

Weather History for KFTK - February, 2013

Change the Weather History Date:

Tuesday, February 12, 2013

  Actual Average Record
Temperature  
Mean Temperature 38 °F -  
Max Temperature 49 °F 45 °F 66 °F (2017)
Min Temperature 28 °F 27 °F 9 °F (2014)
Degree Days  
Heating Degree Days 26    
Moisture  
Dew Point 27 °F    
Average Humidity 64    
Maximum Humidity 87    
Minimum Humidity 40    
Precipitation  
Precipitation 0.00 in - - ()
Sea Level Pressure  
Sea Level Pressure 30.07 in    
Wind  
Wind Speed 4 mph (West)    
Max Wind Speed 8 mph    
Max Gust Speed -    
Visibility 10 miles    
Events      
Averages and records for this station are not official NWS values.
T = Trace of Precipitation, MM = Missing Value Source: NWS Daily Summary

Daily Weather History Graph

Daily Weather History Graph

Search for Another Location

Airport or City:

Trip Planner

Search our weather history database for the weather conditions in past years. The results will help you decide how hot, cold, wet, or windy it might be!

Date:

Astronomy

Feb. 12, 2013 Rise Set
Actual Time 7:36 AM EST 6:19 PM EST
Civil Twilight 7:09 AM EST 6:46 PM EST
Nautical Twilight 6:38 AM EST 7:17 PM EST
Astronomical Twilight 6:08 AM EST 7:48 PM EST
Moon 8:37 AM EST (2/12) 9:15 PM EST (2/12)
Length of Visible Light 11h 37m
Length of Day
10h 42m
Waxing Crescent, 7% of the Moon is Illuminated
Feb 12
Waxing Crescent
Feb 17
First Quarter
Feb 25
Full
Mar 4
Last Quarter
Mar 11
New

Hourly Weather History & Observations

Time (EST) Temp. Windchill Dew Point Humidity Pressure Visibility Wind Dir Wind Speed Gust Speed Precip Events Conditions
12:55 AM 35.8 °F 30.9 °F 25.2 °F 65% 30.12 in 10.0 mi WSW 5.8 mph - N/A   Clear
1:55 AM 36.3 °F 30.1 °F 25.9 °F 66% 30.13 in 10.0 mi WSW 8.1 mph - N/A   Clear
2:55 AM 33.1 °F 27.7 °F 25.0 °F 72% 30.13 in 10.0 mi West 5.8 mph - N/A   Clear
3:55 AM 32.5 °F 28.1 °F 24.4 °F 72% 30.13 in 10.0 mi WSW 4.6 mph - N/A   Clear
4:55 AM 32.5 °F - 24.8 °F 73% 30.14 in 10.0 mi Calm Calm - N/A   Clear
5:55 AM 28.0 °F - 24.6 °F 87% 30.16 in 10.0 mi Calm Calm - N/A   Clear
6:55 AM 29.8 °F - 25.2 °F 83% 30.16 in 10.0 mi South 2.3 mph - N/A   Clear
7:55 AM 28.8 °F - 24.8 °F 85% 30.17 in 10.0 mi Calm Calm - N/A   Clear
8:55 AM 33.4 °F - 28.0 °F 81% 30.18 in 10.0 mi Calm Calm - N/A   Clear
9:55 AM 38.5 °F 36.1 °F 28.2 °F 67% 30.16 in 10.0 mi SE 3.5 mph - N/A   Clear
10:55 AM 42.6 °F 39.0 °F 27.7 °F 56% 30.14 in 10.0 mi NW 5.8 mph - N/A   Clear
11:55 AM 44.6 °F 42.2 °F 27.1 °F 50% 30.11 in 10.0 mi NW 4.6 mph - N/A   Clear
12:55 PM 47.3 °F - 27.3 °F 46% 30.11 in 10.0 mi North 4.6 mph - N/A   Clear
1:55 PM 49.6 °F - 27.5 °F 42% 30.09 in 10.0 mi SSW 8.1 mph - N/A   Mostly Cloudy
2:55 PM 49.1 °F - 25.7 °F 40% 30.08 in 10.0 mi SSW 5.8 mph - N/A   Mostly Cloudy
3:55 PM 48.6 °F - 26.1 °F 42% 30.05 in 10.0 mi SSE 2.3 mph - N/A   Overcast
4:55 PM 48.2 °F - 25.5 °F 41% 29.99 in 10.0 mi Calm Calm - N/A   Mostly Cloudy
5:55 PM 45.5 °F - 29.3 °F 53% 30.00 in 10.0 mi WNW 2.3 mph - N/A   Mostly Cloudy
6:55 PM 41.9 °F - 30.6 °F 64% 29.99 in 10.0 mi NNW 2.3 mph - N/A   Overcast
7:55 PM 39.4 °F 37.2 °F 28.4 °F 65% 29.99 in 10.0 mi North 3.5 mph - N/A   Mostly Cloudy
8:55 PM 36.9 °F 33.1 °F 28.6 °F 72% 29.96 in 10.0 mi North 4.6 mph - N/A   Mostly Cloudy
9:55 PM 36.5 °F - 28.4 °F 72% 29.95 in 10.0 mi Calm Calm - N/A   Overcast
10:55 PM 36.3 °F - 28.4 °F 73% 29.92 in 10.0 mi Calm Calm - N/A   Overcast
11:55 PM 37.8 °F 35.3 °F 29.1 °F 71% 29.89 in 10.0 mi North 3.5 mph - N/A   Overcast